Flag for U.S.A. Weather past 2 weeks in Evansville, Indiana, U.S.A.

Now
68 °F

Sunny.


Feels Like: 68 °F
Forecast: 61 / 83 °F
Wind: 8 mph from South

Location: Evansville Regional Airport

Current Time: May 24, 2015 at 8:52:22 AM

Latest Report: May 24, 2015 at 7:54 AM


Visibility: 10 mi

Pressure: 30.21 "Hg

Humidity: 63%

Dew point: 55 °F

Location of EvansvilleLocation

Historic Weather in Evansville — Graph

°F

Evansville temperature yesterday

Maximum temperature yesterday: 78 °F (at 3:54 PM)
Minimum temperature yesterday: 59 °F (at 1:54 AM)
Average temperature yesterday: 68 °F

Past Weeks' High & Low Weather Summary

 TemperatureHumidityPressure
High86 °F (May 10, 3:54 PM)93% (May 11, 12:54 AM)30.40 "Hg (May 11, 12:54 AM)
Low45 °F (May 22, 5:54 AM)32% (May 23, 3:54 PM)29.92 "Hg (May 11, 9:54 AM)
Average66 °F72%30.13 "Hg
* Reported May 9 6:54 AM — May 24 6:54 AM, Evansville, Weather by CustomWeather, © 2015

Note: Actual official high and low records may vary slightly from our data, if they occured in-between our weather recording intervals... More about our weather records

Advertising

Evansville weather history for previous 24 hours

 ConditionsComfort  
Time TempWeatherWind HumidityBarometerVisibility
6:54 AM
Sun, May 24
65 °FSunny.No wind70%30.20 "Hg10 mi
5:54 AM61 °FPartly sunny.No wind78%30.20 "Hg10 mi
4:54 AM60 °FClear.3 mph80%30.18 "Hg10 mi
3:54 AM64 °FClear.No wind63%30.17 "Hg10 mi
2:54 AM61 °FClear.5 mph78%30.18 "Hg10 mi
1:54 AM63 °FClear.3 mph70%30.19 "Hg10 mi
12:54 AM64 °FPassing clouds.No wind68%30.18 "Hg10 mi
11:54 PM
Sat, May 23
65 °FClear.3 mph66%30.19 "Hg10 mi
10:54 PM65 °FClear.No wind66%30.21 "Hg10 mi
9:54 PM68 °FClear.No wind57%30.22 "Hg10 mi
8:54 PM71 °FClear.No wind49%30.21 "Hg10 mi
7:54 PM73 °FSunny.5 mph44%30.20 "Hg10 mi
6:54 PM75 °FSunny.5 mph40%30.22 "Hg10 mi
5:54 PM78 °FSunny.8 mph32%30.22 "Hg10 mi
4:54 PM78 °FSunny.7 mph35%30.24 "Hg10 mi
3:54 PM78 °FSunny.7 mph32%30.26 "Hg10 mi
2:54 PM77 °FSunny.3 mph35%30.29 "Hg10 mi
1:54 PM77 °FSunny.9 mph36%30.30 "Hg10 mi
12:54 PM76 °FSunny.8 mph37%30.32 "Hg10 mi
11:54 AM75 °FSunny.12 mph42%30.34 "Hg10 mi
10:54 AM73 °FSunny.6 mph50%30.36 "Hg10 mi
9:54 AM69 °FPassing clouds.5 mph66%30.35 "Hg9 mi
8:54 AM65 °FPassing clouds.3 mph76%30.37 "Hg8 mi
Weather by CustomWeather, © 2015

See weather overviewHow to use our weather pages